This is the latest recevied weather packets stored in our database for station/object OK1VOF-13. If no packets are shown the sender has not sent any weather packets the latest 10 day(s).
| Time | Temp. | Humidity | Pressure | Rain* | Wind** | Luminosity | Snow |
|---|---|---|---|---|---|---|---|
| 1788167244 | 19.44° C | 65% | 1017.9 hPa | 0 mm | - | - | - |
| 1788166939 | 19.44° C | 65% | 1017.8 hPa | 0 mm | - | - | - |
| 1788166640 | 19.44° C | 65% | 1018 hPa | 0 mm | - | - | - |
| 1788166348 | 19.44° C | 65% | 1018.1 hPa | 0 mm | - | - | - |
| 1788166043 | 19.44° C | 65% | 1018.1 hPa | 0 mm | - | - | - |
| 1788165451 | 20° C | 64% | 1018.1 hPa | 0 mm | - | - | - |
| 1788164854 | 20° C | 63% | 1017.7 hPa | 0 mm | - | - | - |
| 1788164250 | 20° C | 63% | 1017 hPa | 0 mm | - | - | - |
| 1788163951 | 20° C | 63% | 1016.9 hPa | 0 mm | - | - | - |
| 1788163061 | 19.44° C | 63% | 1016.6 hPa | 0 mm | - | - | - |
| 1788162762 | 19.44° C | 63% | 1016.6 hPa | 0 mm | - | - | - |
| 1788161863 | 19.44° C | 63% | 1016.3 hPa | 23.11 mm | - | - | - |
| 1788161259 | 19.44° C | 63% | 1016.2 hPa | 23.11 mm | - | - | - |
| 1788159742 | 18.89° C | 63% | 1016.1 hPa | 71.12 mm | - | - | - |
| 1788159440 | 18.89° C | 63% | 1016.3 hPa | 71.12 mm | - | - | - |
| 1788159138 | 18.89° C | 63% | 1016.4 hPa | 71.12 mm | - | - | - |
| 1788157937 | 18.33° C | 63% | 1016.5 hPa | 68.83 mm | - | - | - |
| 1788157031 | 18.33° C | 63% | 1016.5 hPa | 68.83 mm | - | - | - |
| 1788156729 | 18.33° C | 63% | 1016.5 hPa | 68.83 mm | - | - | - |
| 1788156372 | 17.78° C | 63% | 1016.4 hPa | 0 mm | - | - | - |
| 1788156074 | 17.78° C | 63% | 1016.4 hPa | 0 mm | - | - | - |
| 1788155775 | 17.78° C | 63% | 1016.5 hPa | 0 mm | - | - | - |
| 1788155171 | 17.78° C | 63% | 1016.3 hPa | 0 mm | - | - | - |
| 1788154579 | 17.22° C | 63% | 1016.3 hPa | 0 mm | - | - | - |
| 1788152780 | 16.67° C | 62% | 1016.3 hPa | 0 mm | - | - | - |
* Rain latest hour (hover to see other rain measurements)
** Current wind speed in m/s (hover to see current wind gust speed)